Rochester/St. Mary\'s Hospita, MN

2:56 AM CDT on June 22, 2018 (GMT -0500)
Rochester/St. Mary\'s Hospita

Weather History for K9MN - October, 2017

Change the Weather History Date:

Monday, October 30, 2017

  Actual Average (KRST) Record (KRST)
Temperature  
Mean Temperature 35 °F -  
Max Temperature 40 °F 51 °F 79 °F (1950)
Min Temperature 30 °F 33 °F 11 °F (1988)
Degree Days  
Heating Degree Days 30    
Moisture  
Dew Point 29 °F    
Average Humidity 79    
Maximum Humidity 95    
Minimum Humidity 63    
Precipitation  
Precipitation 0.01 in - - ()
Sea Level Pressure  
Sea Level Pressure 29.76 in    
Wind  
Wind Speed 17 mph (West)    
Max Wind Speed 33 mph    
Max Gust Speed 44 mph    
Visibility 10 miles    
Events      
Averages and records for this station are not official NWS values.
T = Trace of Precipitation, MM = Missing Value Source: NWS Daily Summary

Daily Weather History Graph

Daily Weather History Graph

Search for Another Location

Airport or City:

Astronomy

Oct. 30, 2017 Rise Set
Actual Time 7:44 AM CDT 6:02 PM CDT
Civil Twilight 7:14 AM CDT 6:32 PM CDT
Nautical Twilight 6:40 AM CDT 7:06 PM CDT
Astronomical Twilight 6:06 AM CDT 7:39 PM CDT
Moon 4:02 PM CDT (10/30) 2:15 AM CDT (10/30)
Length of Visible Light 11h 18m
Length of Day
10h 18m
Waxing Gibbous, 76% of the Moon is Illuminated
Oct 30
Waxing Gibbous
Nov 4
Full
Nov 10
Last Quarter
Nov 18
New
Nov 26
First Quarter

Hourly Weather History & Observations

Time (CDT) Temp. Windchill Dew Point Humidity Pressure Visibility Wind Dir Wind Speed Gust Speed Precip Events Conditions
12:11 AM 40.5 °F 34.1 °F 39.0 °F 95% 29.69 in 10.0 mi West 10.4 mph - 0.01 in   Overcast
12:32 AM 40.3 °F 34.9 °F 38.5 °F 93% 29.69 in 10.0 mi West 8.1 mph - 0.01 in   Overcast
12:52 AM 40.3 °F 33.4 °F 38.5 °F 93% 29.69 in 10.0 mi West 11.5 mph - 0.01 in   Overcast
1:11 AM 39.9 °F 31.8 °F 37.4 °F 91% 29.68 in 10.0 mi West 15.0 mph 20.7 mph N/A   Mostly Cloudy
1:32 AM 39.2 °F 30.8 °F 36.5 °F 90% 29.68 in 10.0 mi West 15.0 mph 21.9 mph N/A   Scattered Clouds
1:52 AM 38.3 °F 29.7 °F 36.5 °F 93% 29.69 in 10.0 mi West 15.0 mph - N/A   Clear
2:11 AM 37.8 °F 29.4 °F 36.3 °F 95% 29.69 in 10.0 mi West 13.8 mph 19.6 mph N/A   Clear
2:32 AM 37.4 °F 28.9 °F 35.6 °F 93% 29.68 in 10.0 mi West 13.8 mph 19.6 mph N/A   Clear
2:52 AM 37.0 °F 29.3 °F 34.7 °F 91% 29.68 in 10.0 mi West 11.5 mph 18.4 mph N/A   Clear
3:12 AM 36.9 °F 29.1 °F 34.2 °F 90% 29.67 in 10.0 mi West 11.5 mph 18.4 mph N/A   Clear
3:32 AM 36.7 °F 27.6 °F 33.4 °F 88% 29.67 in 10.0 mi West 15.0 mph 21.9 mph N/A   Clear
3:51 AM 36.5 °F 27.8 °F 32.9 °F 87% 29.67 in 10.0 mi West 13.8 mph 23.0 mph N/A   Mostly Cloudy
4:12 AM 36.5 °F 27.0 °F 32.0 °F 84% 29.67 in 10.0 mi West 16.1 mph 26.5 mph N/A   Overcast
4:32 AM 36.5 °F 26.3 °F 31.8 °F 83% 29.67 in 10.0 mi West 18.4 mph 25.3 mph N/A   Overcast
4:51 AM 36.1 °F 26.9 °F 31.6 °F 84% 29.67 in 10.0 mi West 15.0 mph 23.0 mph N/A   Mostly Cloudy
5:12 AM 35.6 °F 26.2 °F 31.1 °F 84% 29.67 in 10.0 mi West 15.0 mph 20.7 mph N/A   Scattered Clouds
5:32 AM 35.6 °F 25.5 °F 31.5 °F 85% 29.67 in 10.0 mi West 17.3 mph 24.2 mph N/A   Mostly Cloudy
5:51 AM 35.8 °F 25.7 °F 31.1 °F 83% 29.67 in 10.0 mi West 17.3 mph 25.3 mph N/A   Overcast
6:12 AM 35.8 °F 25.7 °F 31.5 °F 84% 29.67 in 10.0 mi West 17.3 mph 25.3 mph N/A   Overcast
6:32 AM 35.8 °F 27.3 °F 31.5 °F 84% 29.67 in 10.0 mi West 12.7 mph 23.0 mph N/A   Overcast
6:51 AM 35.6 °F 26.6 °F 31.3 °F 84% 29.66 in 10.0 mi West 13.8 mph 21.9 mph N/A   Mostly Cloudy
7:12 AM 35.1 °F 25.2 °F 30.9 °F 85% 29.67 in 10.0 mi West 16.1 mph 24.2 mph N/A   Mostly Cloudy
7:32 AM 35.6 °F 27.5 °F 30.9 °F 83% 29.67 in 10.0 mi West 11.5 mph 24.2 mph N/A   Overcast
7:51 AM 35.6 °F 23.7 °F 29.8 °F 80% 29.67 in 10.0 mi West 24.2 mph 29.9 mph N/A   Overcast
8:12 AM 35.1 °F 24.1 °F 29.1 °F 79% 29.67 in 10.0 mi West 19.6 mph 29.9 mph N/A   Overcast
8:32 AM 34.9 °F 23.6 °F 28.9 °F 79% 29.68 in 10.0 mi West 20.7 mph 27.6 mph N/A   Overcast
8:51 AM 34.9 °F 24.2 °F 28.9 °F 79% 29.69 in 10.0 mi West 18.4 mph 27.6 mph N/A   Overcast
9:12 AM 35.1 °F 24.5 °F 28.9 °F 78% 29.69 in 10.0 mi West 18.4 mph 26.5 mph N/A   Overcast
9:32 AM 35.2 °F 24.7 °F 28.9 °F 78% 29.69 in 10.0 mi West 18.4 mph 32.2 mph N/A   Overcast
9:51 AM 35.2 °F 24.1 °F 29.3 °F 79% 29.69 in 10.0 mi West 20.7 mph 28.8 mph N/A   Overcast
10:12 AM 34.7 °F 24.0 °F 29.1 °F 80% 29.71 in 10.0 mi WNW 18.4 mph 35.7 mph N/A   Overcast
10:32 AM 35.2 °F 23.2 °F 28.8 °F 77% 29.70 in 10.0 mi WNW 24.2 mph 32.2 mph N/A   Overcast
10:51 AM 35.1 °F 23.5 °F 28.4 °F 77% 29.71 in 10.0 mi West 21.9 mph 36.8 mph N/A   Overcast
11:12 AM 35.6 °F 24.2 °F 28.0 °F 74% 29.72 in 10.0 mi West 21.9 mph 36.8 mph N/A   Overcast
11:32 AM 35.6 °F 23.0 °F 27.7 °F 73% 29.71 in 10.0 mi WNW 27.6 mph 39.1 mph N/A   Overcast
11:52 AM 36.0 °F 26.7 °F 28.8 °F 75% 29.73 in 10.0 mi WNW 15.0 mph 34.5 mph N/A   Overcast
12:12 PM 36.3 °F 26.4 °F 29.8 °F 77% 29.73 in 10.0 mi West 17.3 mph 26.5 mph N/A   Overcast
12:31 PM 35.8 °F 24.2 °F 30.6 °F 81% 29.73 in 7.0 mi West 23.0 mph 34.5 mph N/A   Overcast
12:52 PM 36.7 °F 27.2 °F 31.8 °F 83% 29.73 in 10.0 mi West 16.1 mph 28.8 mph N/A   Overcast
1:12 PM 36.1 °F 25.9 °F 32.0 °F 85% 29.73 in 10.0 mi West 18.4 mph 33.4 mph N/A   Overcast
1:31 PM 35.6 °F 24.5 °F 32.2 °F 87% 29.73 in 7.0 mi West 20.7 mph 29.9 mph N/A   Overcast
1:52 PM 36.5 °F 24.0 °F 31.5 °F 82% 29.72 in 10.0 mi West 28.8 mph 41.4 mph N/A   Overcast
2:12 PM 35.4 °F 22.5 °F 30.7 °F 83% 29.73 in 7.0 mi West 28.8 mph 43.7 mph N/A   Overcast
2:31 PM 35.1 °F 23.5 °F 30.0 °F 82% 29.75 in 10.0 mi West 21.9 mph 39.1 mph N/A   Overcast
2:52 PM 34.7 °F 21.5 °F 28.4 °F 78% 29.75 in 10.0 mi West 28.8 mph 42.6 mph N/A   Overcast
3:12 PM 34.7 °F 20.7 °F 26.8 °F 73% 29.75 in 10.0 mi West 33.4 mph 43.7 mph N/A   Overcast
3:31 PM 34.3 °F 21.5 °F 25.7 °F 71% 29.77 in 10.0 mi West 26.5 mph 40.3 mph N/A   Overcast
3:52 PM 34.2 °F 21.5 °F 25.3 °F 70% 29.78 in 10.0 mi West 25.3 mph 42.6 mph N/A   Overcast
4:12 PM 33.8 °F 21.0 °F 25.0 °F 70% 29.80 in 10.0 mi West 25.3 mph 39.1 mph N/A   Overcast
4:31 PM 33.3 °F 20.9 °F 24.8 °F 71% 29.80 in 10.0 mi West 23.0 mph 36.8 mph N/A   Overcast
4:52 PM 32.9 °F 19.1 °F 23.7 °F 69% 29.80 in 10.0 mi WNW 28.8 mph 39.1 mph N/A   Overcast
5:12 PM 32.5 °F 18.8 °F 24.1 °F 71% 29.82 in 10.0 mi West 27.6 mph 35.7 mph N/A   Overcast
5:31 PM 32.0 °F 18.6 °F 22.8 °F 69% 29.83 in 10.0 mi West 25.3 mph 40.3 mph N/A   Overcast
5:52 PM 32.0 °F 18.4 °F 21.9 °F 66% 29.83 in 10.0 mi West 26.5 mph 41.4 mph N/A   Overcast
6:12 PM 32.0 °F 19.8 °F 22.1 °F 67% 29.86 in 10.0 mi WNW 20.7 mph 41.4 mph N/A   Overcast
6:31 PM 32.0 °F 20.1 °F 22.8 °F 69% 29.86 in 10.0 mi WNW 19.6 mph 27.6 mph N/A   Overcast
7:12 PM 31.5 °F 19.1 °F 23.5 °F 73% 29.87 in 10.0 mi WNW 20.7 mph 33.4 mph N/A   Overcast
7:31 PM 31.3 °F 18.5 °F 22.8 °F 71% 29.88 in 10.0 mi WNW 21.9 mph 28.8 mph N/A   Overcast
7:52 PM 31.6 °F 19.0 °F 21.9 °F 67% 29.88 in 10.0 mi WNW 21.9 mph 29.9 mph N/A   Overcast
8:12 PM 31.5 °F 18.5 °F 21.4 °F 66% 29.89 in 10.0 mi WNW 23.0 mph 34.5 mph N/A   Overcast
8:31 PM 31.1 °F 18.6 °F 23.2 °F 72% 29.90 in 10.0 mi WNW 20.7 mph 29.9 mph N/A   Overcast
8:52 PM 30.7 °F 18.1 °F 24.4 °F 77% 29.91 in 10.0 mi West 20.7 mph 29.9 mph N/A   Overcast
9:12 PM 30.6 °F 19.0 °F 23.7 °F 76% 29.92 in 10.0 mi WNW 17.3 mph 32.2 mph N/A   Overcast
9:31 PM 30.9 °F 18.4 °F 23.7 °F 75% 29.92 in 10.0 mi West 20.7 mph 27.6 mph N/A   Overcast
9:52 PM 30.7 °F 18.1 °F 23.7 °F 75% 29.93 in 10.0 mi WNW 20.7 mph 29.9 mph N/A   Overcast
10:12 PM 30.4 °F 19.5 °F 24.3 °F 78% 29.94 in 10.0 mi West 15.0 mph 31.1 mph N/A   Overcast
10:31 PM 30.2 °F 18.9 °F 23.9 °F 77% 29.94 in 10.0 mi West 16.1 mph 26.5 mph N/A   Overcast
10:52 PM 30.9 °F 18.4 °F 22.6 °F 71% 29.94 in 10.0 mi WNW 20.7 mph 27.6 mph N/A   Overcast
11:12 PM 30.4 °F 18.7 °F 21.4 °F 69% 29.95 in 10.0 mi WNW 17.3 mph 33.4 mph N/A   Overcast
11:31 PM 31.1 °F 18.3 °F 20.1 °F 64% 29.95 in 10.0 mi West 21.9 mph 28.8 mph N/A   Overcast
11:52 PM 30.9 °F 19.1 °F 19.6 °F 63% 29.96 in 10.0 mi West 18.4 mph 31.1 mph N/A   Overcast